Flag for Norway Weather past 2 weeks in Stavern, Norway

Now
34 °F

Clear.


Feels Like: 28 °F
Forecast: 41 / 43 °F
Wind: 7 mph from Southwest

Location: Torp

Current Time: Dec 22, 2014 at 9:12:10 PM

Latest Report: Dec 22, 2014 at 8:50 PM


Visibility: 10 mi

Pressure: 29.24 "Hg

Humidity: 87%

Dew point: 30 °F

Location of StavernLocation

Historic Weather in Stavern — Graph

°F

Stavern temperature yesterday

Maximum temperature yesterday: 39 °F (at 7:20 PM)
Minimum temperature yesterday: 32 °F (at 12:50 AM)
Average temperature yesterday: 35 °F

Past Weeks' High & Low Weather Summary

 TemperatureHumidityPressure
High45 °F (Dec 14, 3:20 PM)100% (Dec 10, 5:50 AM)29.98 "Hg (Dec 10, 5:50 AM)
Low23 °F (Dec 17, 8:20 AM)52% (Dec 21, 3:20 AM)28.97 "Hg (Dec 12, 6:50 PM)
Average35 °F85%29.34 "Hg
* Reported Dec 7 7:20 PM — Dec 22 7:50 PM, Stavern, Weather by CustomWeather, © 2014

Note: Actual official high and low records may vary slightly from our data, if they occured in-between our weather recording intervals... More about our weather records

Advertising

Stavern weather history for previous 24 hours

 ConditionsComfort  
Time TempWeatherWind HumidityBarometerVisibility
7:50 PM
Dec 22
34 °FClear.5 mph87%29.24 "Hg10 mi
7:20 PM36 °FClear.6 mph87%29.24 "Hg10 mi
6:50 PM36 °FClear.7 mph87%29.24 "Hg10 mi
6:20 PM36 °FClear.8 mph93%29.24 "Hg10 mi
5:50 PM37 °FPassing clouds.5 mph93%29.27 "HgN/A
5:20 PM37 °FClear.5 mph81%29.24 "Hg10 mi
4:50 PM37 °FClear.8 mph87%29.24 "Hg10 mi
4:20 PM37 °FClear.5 mph87%29.24 "Hg10 mi
3:50 PM36 °FClear.5 mph87%29.24 "Hg10 mi
3:20 PM37 °FClear.6 mph81%29.24 "Hg10 mi
2:50 PM37 °FSunny.8 mph81%29.24 "Hg10 mi
2:20 PM37 °FSunny.7 mph81%29.24 "Hg10 mi
1:50 PM39 °FSunny.10 mph75%29.24 "Hg10 mi
1:20 PM39 °FSunny.8 mph75%29.24 "Hg10 mi
12:50 PM39 °FSunny.9 mph75%29.24 "Hg10 mi
12:20 PM39 °FPassing clouds.6 mph75%29.24 "HgN/A
11:50 AM39 °FPassing clouds.3 mph75%29.24 "HgN/A
11:20 AM37 °FSunny.7 mph81%29.24 "Hg10 mi
10:50 AM37 °FSunny.9 mph81%29.21 "Hg10 mi
10:20 AM36 °FSunny.9 mph87%29.21 "Hg10 mi
9:50 AM36 °FSunny.10 mph87%29.21 "Hg10 mi
9:20 AM36 °FSunny.8 mph87%29.21 "Hg10 mi
8:50 AM37 °FClear.10 mph81%29.21 "Hg10 mi
8:20 AM37 °FClear.8 mph87%29.21 "Hg10 mi
7:50 AM37 °FClear.9 mph93%29.21 "Hg10 mi
7:20 AM37 °FClear.5 mph93%29.21 "Hg10 mi
6:50 AM36 °FClear.7 mph93%29.21 "Hg10 mi
6:20 AM37 °FClear.8 mph100%29.21 "Hg10 mi
5:50 AM36 °FClear.6 mph100%29.21 "Hg10 mi
5:20 AM37 °FPassing clouds.9 mph100%29.21 "HgN/A
4:50 AM36 °FChilly.7 mph100%29.21 "HgN/A
4:20 AM34 °FChilly.5 mph100%29.21 "HgN/A
3:50 AM34 °FChilly.5 mph100%29.21 "HgN/A
3:20 AM34 °FPassing clouds.6 mph100%29.24 "HgN/A
2:50 AM34 °FFog.7 mph100%29.24 "Hg1 mi
2:20 AM34 °FPassing clouds.5 mph100%29.27 "Hg0 mi
1:50 AM34 °FFog.7 mph100%29.27 "Hg1 mi
1:20 AM34 °FFog.7 mph100%29.27 "Hg1 mi
12:50 AM36 °FFog.6 mph100%29.30 "Hg1 mi
12:20 AM36 °FFog.6 mph100%29.30 "Hg2 mi
11:50 PM
Dec 21
36 °FLow clouds.3 mph100%29.30 "Hg4 mi
11:20 PM37 °FLow clouds.5 mph100%29.30 "Hg6 mi
10:20 PM37 °FPassing clouds.7 mph100%29.33 "HgN/A
9:50 PM37 °FPassing clouds.3 mph100%29.33 "HgN/A
9:20 PM37 °FPassing clouds.6 mph100%29.36 "HgN/A
Weather by CustomWeather, © 2014

See weather overviewHow to use our weather pages